Weather History for Chievres, Belgium

Change the Weather History Date:

Monday, January 14, 2013

  Actual Average Record
Temperature  
Mean Temperature 26 °F -  
Max Temperature 30 °F 41 °F 53 °F (2011)
Min Temperature 21 °F 35 °F 21 °F (2013)
Degree Days  
Heating Degree Days 40    
Moisture  
Dew Point 24 °F    
Average Humidity 87    
Maximum Humidity 100    
Minimum Humidity 68    
Precipitation  
Precipitation 0.01 in - - ()
Sea Level Pressure  
Sea Level Pressure 29.89 in    
Wind  
Wind Speed 7 mph ()    
Max Wind Speed 23 mph    
Max Gust Speed -    
Visibility 2.7 miles    
Events Snow    
Averages and records for this station are not official NWS values.
T = Trace of Precipitation, MM = Missing Value Source: Averaged Metar Reports

Daily Weather History Graph

Daily Weather History Graph

Search for Another Location

Airport:

Trip Planner

Search our weather history database for the weather conditions in past years. The results will help you decide how hot, cold, wet, or windy it might be!

Date:

Astronomy

Jan. 14, 2013 Rise Set
Actual Time 8:40 AM CET 5:07 PM CET
Civil Twilight 8:02 AM CET 5:45 PM CET
Nautical Twilight 7:21 AM CET 6:26 PM CET
Astronomical Twilight 6:42 AM CET 7:05 PM CET
Moon 9:41 AM CET (1/14) 9:03 PM CET (1/14)
Length of Visible Light 9h 42m
Length of Day
8h 27m
Waxing Crescent, 9% of the Moon is Illuminated
Jan 14
Waxing Crescent
Jan 19
First Quarter
Jan 27
Full
Feb 3
Last Quarter
Feb 10
New

Hourly Weather History & Observations

Time (CET) Temp. Windchill Dew Point Humidity Pressure Visibility Wind Dir Wind Speed Gust Speed Precip Events Conditions
12:25 AM 24.8 °F 16.9 °F 23.0 °F 93% 30.04 in 3.1 mi North 6.9 mph - N/A   Clear
1:00 AM 24 °F - 21 °F 85% 30.06 in 3 mi North 6.7 mph - -  
1:03 AM 23.0 °F 17.0 °F 21.2 °F 93% 30.04 in - North 4.6 mph - N/A   Clear
1:25 AM 23.0 °F - 21.2 °F 93% 30.04 in - Calm Calm - N/A   Clear
2:25 AM 23.0 °F 15.8 °F 21.2 °F 93% 30.04 in - North 5.8 mph - N/A   Scattered Clouds
2:35 AM 24.8 °F - 23.0 °F 93% 30.04 in 2.5 mi Variable 2.3 mph - N/A Snow Light Snow
3:25 AM 24.8 °F 20.5 °F 23.0 °F 93% 30.04 in - Variable 3.5 mph - N/A   Mostly Cloudy
3:28 AM 24.8 °F 20.5 °F 23.0 °F 93% 30.04 in 2.2 mi Variable 3.5 mph - N/A   Mostly Cloudy
4:00 AM 24 °F - 22 °F 91% 30.06 in 2 mi 2.2 mph - -   Mist
4:25 AM 23.0 °F 17.0 °F 21.2 °F 93% 30.04 in 1.9 mi NNW 4.6 mph - N/A   Scattered Clouds
5:16 AM 23.0 °F - 21.2 °F 93% 30.01 in 0.9 mi Variable 1.2 mph - N/A   Partly Cloudy
5:25 AM 24.8 °F - 23.0 °F 93% 30.01 in 0.9 mi Variable 2.3 mph - N/A   Partly Cloudy
6:25 AM 23.0 °F - 21.2 °F 93% 30.01 in 1.2 mi West 2.3 mph - N/A   Scattered Clouds
7:00 AM 22 °F - 21 °F 94% 30.04 in 2 mi WNW 2.2 mph - -   Mist
7:25 AM 21.2 °F - 19.4 °F 93% 30.01 in 1.6 mi Calm Calm - N/A   Partly Cloudy
8:25 AM 21.2 °F - 21.2 °F 100% 30.01 in 1.2 mi SSW 2.3 mph - N/A   Partly Cloudy
9:01 AM 23.0 °F - 21.2 °F 93% 30.01 in 1.6 mi Variable 2.3 mph - N/A   Mostly Cloudy
9:25 AM 24.8 °F 19.1 °F 23.0 °F 93% 30.01 in 1.7 mi South 4.6 mph - N/A   Mostly Cloudy
9:52 AM 24.8 °F 20.5 °F 23.0 °F 93% 30.01 in 1.7 mi SSW 3.5 mph - N/A   Mostly Cloudy
10:13 AM 24.8 °F 19.1 °F 23.0 °F 93% 30.01 in 1.1 mi SW 4.6 mph - N/A   Mostly Cloudy
11:25 AM 26.6 °F 21.2 °F 24.8 °F 93% 30.01 in 1.4 mi South 4.6 mph - N/A   Mostly Cloudy
12:25 PM 26.6 °F 18.2 °F 24.8 °F 93% 29.98 in 1.7 mi SSW 8.1 mph - N/A   Mostly Cloudy
1:00 PM 28 °F - 26 °F 90% 29.98 in 2 mi South 8.9 mph - -   Mist
1:21 PM 30.2 °F 21.9 °F 26.6 °F 86% 29.95 in - South 9.2 mph - N/A   Mostly Cloudy
1:25 PM 30.2 °F 21.9 °F 26.6 °F 86% 29.95 in - South 9.2 mph - N/A   Mostly Cloudy
1:34 PM 30.2 °F 22.6 °F 26.6 °F 86% 29.95 in 3.1 mi South 8.1 mph - N/A   Mostly Cloudy
2:01 PM 30.2 °F 21.9 °F 24.8 °F 80% 29.92 in 5.0 mi SSW 9.2 mph - N/A   Mostly Cloudy
2:25 PM 30.2 °F 21.9 °F 24.8 °F 80% 29.92 in 6.2 mi SSW 9.2 mph - N/A   Mostly Cloudy
3:25 PM 30.2 °F 20.8 °F 23.0 °F 75% 29.92 in 5.0 mi SSW 11.5 mph - N/A   Mostly Cloudy
4:00 PM 29 °F - 24 °F 75% 29.92 in 5 mi SSW 11.2 mph - -   Partly Cloudy
4:25 PM 30.2 °F 21.3 °F 23.0 °F 75% 29.89 in 6.2 mi South 10.4 mph - N/A   Mostly Cloudy
5:25 PM 30.2 °F 21.3 °F 23.0 °F 75% 29.86 in 6.2 mi South 10.4 mph - N/A   Overcast
6:25 PM 30.2 °F 20.8 °F 24.8 °F 80% 29.83 in 6.2 mi South 11.5 mph - N/A   Overcast
7:00 PM 30 °F - 24 °F 68% 29.83 in 7 mi South 11.2 mph - -   Mostly Cloudy
7:25 PM 30.2 °F 20.8 °F 23.0 °F 75% 29.80 in 6.2 mi South 11.5 mph - N/A   Mostly Cloudy
8:25 PM 30.2 °F 19.8 °F 21.2 °F 69% 29.74 in 6.2 mi South 13.8 mph - N/A   Overcast
8:55 PM 30.2 °F 19.3 °F 23.0 °F 75% 29.74 in 6.2 mi South 15.0 mph - N/A Snow Light Snow
9:02 PM 30.2 °F 18.5 °F 23.0 °F 75% 29.71 in 4.3 mi South 17.3 mph - N/A Snow Light Snow
9:19 PM 30.2 °F 18.5 °F 23.0 °F 75% 29.71 in - South 17.3 mph - N/A Snow Light Snow
9:25 PM 30.2 °F 17.8 °F 23.0 °F 75% 29.71 in 1.4 mi South 19.6 mph - N/A Snow Light Snow
9:31 PM 30.2 °F 17.4 °F 24.8 °F 80% 29.68 in 0.9 mi South 20.7 mph - N/A Snow Light Snow
9:54 PM 28.4 °F 15.8 °F 26.6 °F 93% 29.68 in 0.4 mi SSE 18.4 mph - N/A Snow Snow
10:00 PM 28 °F - 26 °F 88% 29.70 in 0 mi SSE 17.9 mph - - Snow Light Snow
10:25 PM 28.4 °F 15.4 °F 26.6 °F 93% 29.65 in 0.2 mi South 19.6 mph - N/A Snow Heavy Snow
11:03 PM 28.4 °F 15.4 °F 26.6 °F 93% 29.62 in 0.5 mi South 19.6 mph - N/A Snow Snow
11:11 PM 28.4 °F 15.4 °F 26.6 °F 93% 29.62 in 1.0 mi South 19.6 mph - N/A Snow Snow
11:17 PM 28.4 °F 14.7 °F 26.6 °F 93% 29.62 in 0.8 mi South 21.9 mph - N/A Snow Light Snow
11:25 PM 28.4 °F 14.4 °F 26.6 °F 93% 29.62 in 0.9 mi South 23.0 mph - N/A Snow Light Snow
11:29 PM 28.4 °F 14.7 °F 26.6 °F 93% 29.62 in 1.3 mi South 21.9 mph - N/A Snow Light Snow
11:36 PM 28.4 °F 14.4 °F 26.6 °F 93% 29.62 in 1.2 mi South 23.0 mph - N/A Snow Light Snow Grains